Terminal Aerodrome Forecast
Issued by NWS Duluth, MN

Home | Current Version | Previous Version | Text Only | Print | Product List | Glossary On
Versions: 1 2 3 4 5 6 7 8 9 10 11 12 13 14 15 16 17 18 19 20 21 22 23 24 25 26 27 28 29
000
FTUS43 KDLH 220700 AAB
TAFINL
TAF AMD
KINL 220736Z 2208/2306 VRB05KT P6SM VCSH SCT015 OVC035
      TEMPO 2208/2210 03015KT 4SM -RA BR BKN012 OVC025
     FM221000 36014KT P6SM VCSH BKN015 OVC025
     FM221600 34014G22KT P6SM BKN035
     FM230000 34008KT P6SM SCT050=

USA.gov is the U.S. government's official web portal to all federal, state and local government web resources and services.